This is the latest recevied weather packets stored in our database for station/object K9MWD. If no packets are shown the sender has not sent any weather packets the latest 10 day(s).
| Time | Temp. | Humidity | Pressure | Rain* | Wind** | Luminosity | Snow |
|---|---|---|---|---|---|---|---|
| 1787941468 | 36.67° C | 39% | 1017.5 hPa | 0 mm | - | 897 W/m² | - |
| 1787941168 | 36.67° C | 40% | 1017.6 hPa | 0 mm | - | 882 W/m² | - |
| 1787940863 | 36.67° C | 42% | 1017.7 hPa | 0 mm | - | 872 W/m² | - |
| 1787940561 | 36.11° C | 42% | 1017.7 hPa | 0 mm | - | 848 W/m² | - |
| 1787940255 | 36.11° C | 41% | 1017.9 hPa | 0 mm | - | 867 W/m² | - |
| 1787939949 | 35.56° C | 43% | 1017.8 hPa | 0 mm | - | 857 W/m² | - |
| 1787939649 | 35.56° C | 42% | 1017.8 hPa | 0 mm | - | 860 W/m² | - |
| 1787939343 | 35.56° C | 43% | 1017.8 hPa | 0 mm | - | 844 W/m² | - |
| 1787939038 | 35.56° C | 44% | 1018 hPa | 0 mm | - | 849 W/m² | - |
| 1787938736 | 35.56° C | 44% | 1018 hPa | 0 mm | - | 834 W/m² | - |
| 1787938434 | 35.56° C | 45% | 1018.1 hPa | 0 mm | - | 842 W/m² | - |
| 1787938129 | 35.56° C | 45% | 1018.2 hPa | 0 mm | - | 842 W/m² | - |
| 1787937826 | 35° C | 46% | 1018 hPa | 0 mm | - | 824 W/m² | - |
| 1787937520 | 35° C | 46% | 1018.1 hPa | 0 mm | - | 822 W/m² | - |
| 1787937216 | 35.56° C | 46% | 1018.2 hPa | 0 mm | - | 820 W/m² | - |
| 1787936911 | 35.56° C | 46% | 1018.3 hPa | 0 mm | - | 811 W/m² | - |
| 1787936610 | 34.44° C | 50% | 1018.4 hPa | 0 mm | - | 806 W/m² | - |
| 1787936309 | 35° C | 48% | 1018.3 hPa | 0 mm | - | 799 W/m² | - |
| 1787936005 | 34.44° C | 51% | 1018.5 hPa | 0 mm | - | 783 W/m² | - |
| 1787935701 | 35° C | 52% | 1018.4 hPa | 0 mm | - | 777 W/m² | - |
| 1787935396 | 34.44° C | 53% | 1018.4 hPa | 0 mm | - | 767 W/m² | - |
| 1787935092 | 34.44° C | 53% | 1018.4 hPa | 0 mm | - | 751 W/m² | - |
| 1787934788 | 34.44° C | 54% | 1018.4 hPa | 0 mm | - | 741 W/m² | - |
| 1787934487 | 33.89° C | 57% | 1018.5 hPa | 0 mm | - | 737 W/m² | - |
| 1787934181 | 33.33° C | 58% | 1018.6 hPa | 0 mm | - | 730 W/m² | - |
* Rain latest hour (hover to see other rain measurements)
** Current wind speed in m/s (hover to see current wind gust speed)